Date String (YYYY-MM-DD hh:mm:ss) UTC,Instrument flags,Ambient pressure (hPa),Sample flow (lpm),Bypass flow (lpm),Sample temperature (°C),Ambient temperature (°C),ASC tube jacket temperature (°C),LED temperature (°C),Box temperature (°C),Sample RH (%),Span deviation,Mass concentration (μg/m³),Mass concentration (μg/m³),Mass concentration (μg/m³)
DateTimeUTC,F1_M11,P_M11,Q1_M11,Q2_M11,T1_M11,T2_M11,T3_M11,T4_M11,T5_M11,U1_M11,ZSPAN_M11,X0_M11,X2_M11,X1_M11
2022-11-19 05:00:00,,0829.6,5.01,0.00,21.8,19.9,00.0,30.8,23.4,08.3,0000.5,0013.55,0009.46,0008.82
2022-11-19 05:01:00,,0829.6,5.00,0.00,21.8,21.0,00.0,30.8,23.6,08.2,0000.6,0013.63,0009.53,0008.89
2022-11-19 05:02:00,,0829.5,4.99,0.00,21.9,21.9,00.0,30.7,23.8,08.2,0000.0,0013.72,0009.63,0008.98
2022-11-19 05:03:00,,0829.5,5.00,0.00,22.0,22.4,00.0,30.8,24.0,08.2,0000.0,0014.56,0009.74,0009.07
2022-11-19 05:04:00,,0829.5,5.02,0.00,22.1,21.9,00.0,30.9,24.0,08.2,0000.0,0014.75,0009.84,0009.18
2022-11-19 05:05:00,,0829.5,4.98,0.00,22.0,21.4,00.0,30.9,23.9,08.2,0000.0,0014.96,0009.96,0009.30
2022-11-19 05:06:00,,0829.5,5.01,0.00,22.0,20.9,00.0,30.9,23.7,08.3,0000.0,0015.54,0010.12,0009.43
2022-11-19 05:07:00,,0829.5,5.00,0.00,21.9,20.4,00.0,30.9,23.6,08.4,0000.0,0015.83,0010.30,0009.58
2022-11-19 05:08:00,,0829.5,4.99,0.00,21.8,20.0,00.0,30.9,23.4,08.4,0000.0,0015.95,0010.39,0009.68
2022-11-19 05:09:00,,0829.5,4.99,0.00,21.8,19.6,00.0,30.9,23.3,08.4,0000.0,0015.53,0010.41,0009.70
2022-11-19 05:10:00,,0829.5,5.01,0.00,21.7,19.5,00.0,30.8,23.2,08.3,0000.0,0015.34,0010.39,0009.69
2022-11-19 05:11:00,,0829.4,5.01,0.00,21.7,20.5,00.0,30.7,23.4,08.3,0000.0,0015.51,0010.39,0009.69
2022-11-19 05:12:00,,0829.3,4.99,0.00,21.8,21.6,00.0,30.7,23.7,08.3,0000.0,0015.57,0010.38,0009.69
2022-11-19 05:13:00,,0829.3,4.99,0.00,21.9,21.5,00.0,30.8,23.8,08.2,0000.0,0015.38,0010.36,0009.68
2022-11-19 05:14:00,,0829.3,5.01,0.00,21.9,20.9,00.0,30.8,23.6,08.3,0000.7,0014.48,0010.30,0009.65
2022-11-19 05:15:00,,0829.3,5.00,0.00,21.8,20.4,00.0,30.8,23.4,08.3,0000.9,0014.36,0010.21,0009.58
2022-11-19 05:16:00,,0829.3,4.99,0.00,21.7,20.0,00.0,30.8,23.3,08.3,0001.3,0014.67,0010.13,0009.49
2022-11-19 05:17:00,,0829.4,5.00,0.00,21.7,19.8,00.0,30.8,23.3,08.3,0000.0,0014.15,0009.98,0009.37
2022-11-19 05:18:00,,0829.4,5.01,0.00,21.6,19.7,00.0,30.7,23.3,08.4,0000.0,0013.92,0009.80,0009.21
2022-11-19 05:19:00,,0829.4,5.01,0.00,21.6,20.1,00.0,30.7,23.3,08.4,0000.0,0013.82,0009.74,0009.12
2022-11-19 05:20:00,,0829.5,4.99,0.00,21.7,21.2,00.0,30.6,23.6,08.4,0000.0,0013.93,0009.75,0009.11
2022-11-19 05:21:00,,0829.5,4.99,0.00,21.8,22.2,00.0,30.6,23.8,08.4,0000.0,0014.28,0009.80,0009.16
2022-11-19 05:22:00,,0829.4,5.00,0.00,21.9,22.1,00.0,30.7,23.9,08.4,0000.0,0014.15,0009.80,0009.19
2022-11-19 05:23:00,,0829.4,5.00,0.00,21.9,21.6,00.0,30.7,23.8,08.3,0000.0,0014.06,0009.80,0009.17
2022-11-19 05:24:00,,0829.4,4.99,0.00,21.9,21.2,00.0,30.8,23.7,08.3,0000.0,0014.00,0009.74,0009.12
2022-11-19 05:25:00,,0829.2,4.99,0.00,21.9,20.8,00.0,30.8,23.6,08.3,0000.0,0013.89,0009.66,0009.05
2022-11-19 05:26:00,,0829.2,5.02,0.00,21.8,20.5,00.0,30.8,23.5,08.3,0000.0,0013.91,0009.64,0009.01
2022-11-19 05:27:00,,0829.2,5.00,0.00,21.8,20.3,00.0,30.8,23.5,08.4,0000.0,0013.27,0009.62,0009.00
2022-11-19 05:28:00,,0829.2,5.00,0.00,21.7,20.2,00.0,30.8,23.4,08.4,0000.0,0013.48,0009.62,0009.00
2022-11-19 05:29:00,,0829.3,5.00,0.00,21.7,20.3,00.0,30.7,23.4,08.3,0000.0,0013.71,0009.58,0008.96
2022-11-19 05:30:00,,0829.4,4.99,0.00,21.8,21.3,00.0,30.7,23.7,08.3,0000.0,0013.69,0009.50,0008.91
2022-11-19 05:31:00,,0829.4,5.00,0.00,21.9,22.0,00.0,30.7,23.9,08.2,0000.0,0013.55,0009.40,0008.82
2022-11-19 05:32:00,,0829.4,4.99,0.00,22.0,21.7,00.0,30.7,23.9,08.2,0000.0,0013.05,0009.26,0008.70
2022-11-19 05:33:00,,0829.3,4.99,0.00,21.9,21.3,00.0,30.8,23.8,08.2,0000.0,0012.94,0009.19,0008.59
2022-11-19 05:34:00,,0829.3,5.01,0.00,21.9,20.9,00.0,30.8,23.7,08.3,0000.0,0012.89,0009.15,0008.54
2022-11-19 05:35:00,,0829.4,5.00,0.00,21.9,20.6,00.0,30.8,23.6,08.3,0000.0,0013.27,0009.18,0008.55
2022-11-19 05:36:00,,0829.4,5.00,0.00,21.8,20.3,00.0,30.8,23.5,08.4,0000.0,0013.49,0009.24,0008.59
2022-11-19 05:37:00,,0829.3,5.00,0.00,21.8,20.0,00.0,30.8,23.4,08.5,0000.0,0013.56,0009.30,0008.63
2022-11-19 05:38:00,,0829.3,5.01,0.00,21.8,20.8,00.0,30.7,23.5,08.6,0000.0,0014.05,0009.35,0008.69
2022-11-19 05:39:00,,0829.4,4.99,0.00,21.9,21.8,00.0,30.7,23.8,08.5,0000.0,0014.19,0009.43,0008.76
2022-11-19 05:40:00,,0829.5,5.00,0.00,22.0,21.9,00.0,30.7,23.9,08.5,0000.0,0014.55,0009.52,0008.83
2022-11-19 05:41:00,,0829.5,5.01,0.00,22.0,21.5,00.0,30.8,23.9,08.4,0000.0,0014.80,0009.55,0008.88
2022-11-19 05:42:00,,0829.5,5.01,0.00,22.0,21.1,00.0,30.8,23.8,08.5,0000.0,0014.99,0009.65,0008.96
2022-11-19 05:43:00,,0829.5,5.00,0.00,21.9,20.7,00.0,30.8,23.7,08.5,0000.0,0015.16,0009.74,0009.05
2022-11-19 05:44:00,,0829.5,5.00,0.00,21.9,20.5,00.0,30.8,23.6,08.5,0000.0,0015.41,0009.82,0009.15
2022-11-19 05:45:00,,0829.5,4.99,0.00,21.9,20.3,00.0,30.8,23.6,08.6,0000.0,0015.48,0009.90,0009.26
2022-11-19 05:46:00,,0829.5,5.00,0.00,21.8,20.1,00.0,30.8,23.5,08.6,0000.0,0015.12,0009.94,0009.30
2022-11-19 05:47:00,,0829.5,5.00,0.00,21.8,20.2,00.0,30.8,23.5,08.6,0000.0,0015.09,0009.98,0009.34
2022-11-19 05:48:00,,0829.5,5.02,0.00,21.8,21.1,00.0,30.7,23.7,08.5,0000.0,0015.06,0009.94,0009.31
2022-11-19 05:49:00,,0829.5,5.00,0.00,22.0,22.2,00.0,30.7,23.9,08.5,0002.2,0014.57,0009.89,0009.25
2022-11-19 05:50:00,,0829.5,5.00,0.00,22.1,22.4,00.0,30.8,24.0,08.5,0000.8,0014.35,0009.85,0009.21
2022-11-19 05:51:00,,0829.5,4.99,0.00,22.1,21.9,00.0,30.8,24.0,08.5,0004.0,0013.86,0009.87,0009.20
2022-11-19 05:52:00,,0829.6,5.00,0.00,22.0,21.4,00.0,30.9,23.9,08.5,0002.5,0013.54,0009.88,0009.22
2022-11-19 05:53:00,,0829.6,5.01,0.00,22.0,21.0,00.0,30.9,23.8,08.5,0000.0,0013.50,0009.89,0009.21
2022-11-19 05:54:00,,0829.6,5.01,0.00,22.0,20.8,00.0,30.9,23.7,08.6,0000.0,0013.44,0009.90,0009.23
2022-11-19 05:55:00,,0829.5,4.99,0.00,21.9,20.6,00.0,30.9,23.7,08.6,0000.0,0013.28,0009.93,0009.26
2022-11-19 05:56:00,,0829.6,5.00,0.00,21.9,20.3,00.0,30.9,23.6,08.7,0000.0,0013.46,0010.02,0009.32
2022-11-19 05:57:00,,0829.5,5.00,0.00,21.8,20.3,00.0,30.9,23.5,08.7,0000.0,0013.88,0010.15,0009.43
2022-11-19 05:58:00,,0829.6,5.02,0.00,21.9,21.1,00.0,30.8,23.7,08.7,0000.0,0014.14,0010.26,0009.51
2022-11-19 05:59:00,,0829.5,4.98,0.00,22.0,22.0,00.0,30.8,23.9,08.7,0000.0,0014.32,0010.35,0009.60
